Regional Weather Roundup
Issued by NWS Green Bay, WI

Home | Current Version | Previous Version | Graphics & Text | Print | Product List | Glossary Off
Versions: 1 2 3 4 5 6 7 8 9 10 11 12 13 14 15 16 17 18 19 20 21 22 23 24 25 26 27 28 29 30 31 32 33 34 35 36 37 38 39 40 41 42 43 44 45 46 47 48 49 50

505
ASUS43 KGRB 041600
RWRGRB

NORTH-CENTRAL AND NORTHEAST WISCONSIN REGIONAL WEATHER ROUNDUP
NATIONAL WEATHER SERVICE GREEN BAY WI
1100 AM CDT WED MAY 04 2016

WIZ005-009-010>012-018-019-041700-
NORTH CENTRAL WISCONSIN

CITY           SKY/WX    TMP DP  RH WIND       PRES   REMARKS
IRONWOOD         N/A     43  32  65 N9G18     29.92R
MANITOWISH WTR NOT AVBL
ARBOR VITAE    NOT AVBL
EAGLE RIVER    NOT AVBL
LAND O LAKES   NOT AVBL
RHINELANDER    PTSUNNY   48  32  53 N12G17    29.88R
PHILLIPS       NOT AVBL
ANTIGO         NOT AVBL
TOMAHAWK       NOT AVBL
MERRILL        NOT AVBL
$$

WIZ013-073-041700-
NORTHEAST WISCONSIN

CITY           SKY/WX    TMP DP  RH WIND       PRES   REMARKS
IRON MOUNTAIN  CLOUDY    44  33  65 N21G28    29.83R
MARINETTE      CLOUDY    46  34  61 N18       29.82S
$$

WIZ017-030-035>037-045-041700-
CENTRAL WISCONSIN

CITY           SKY/WX    TMP DP  RH WIND       PRES   REMARKS
MEDFORD        NOT AVBL
WAUSAU         SUNNY     53  27  36 N16G28    29.83S
MOSINEE        MOSUNNY   50  32  50 NW18G25   29.85F
MARSHFIELD     SUNNY     54  32  43 N16G26    29.85S
WISC RAPIDS    SUNNY     54  31  41 N17G25    29.86S
STEVENS POINT  NOT AVBL
WAUPACA        NOT AVBL
SHAWANO        NOT AVBL
CLINTONVILLE   NOT AVBL
WAUTOMA        CLOUDY    51  35  54 N15G21    29.83S
$$

WIZ038-039-048-051-041700-
FOX VALLEY

CITY           SKY/WX    TMP DP  RH WIND       PRES   REMARKS
NWS GREEN BAY  CLOUDY    47  35  63 N24G32    29.81R
APPLETON       CLOUDY    46  34  61 N18G28    29.80R
OSHKOSH        CLOUDY    47  35  63 N20G28    29.81R
FOND DU LAC    CLOUDY    47  35  63 N21G26    29.81R
$$

WIZ022-050-052-041700-
EAST CENTRAL WISCONSIN

CITY           SKY/WX    TMP DP  RH WIND       PRES   REMARKS
EPHRAIM        NOT AVBL
STURGEON BAY   CLOUDY    43  34  70 N20G26    29.82R
MANITOWOC      NOT AVBL
SHEBOYGAN      CLOUDY    47  36  65 N22G29    29.77R
$$

LMZ563-521-522-541>543-041700-
LAKESHORE

STATION/POSITION TIME  TEMP    WIND        PRES    VSBY  WAVE
                       AIR SEA DIR/SP/G                  HT/PER
                 (UTC) (F)     (DEG/KT/KT) (MB)    (MI)  (FT/S)
SHEBOYGAN LKSHOR 1500   45      10/ 24/ 26 1008.4R
KEWAUNEE LKSHORE 1500   44     350/ 15/ 23 1007.8R
ALGOMA MARINA    1515           20/ 23/ 30   N/A
NORTHPORT PIER   1502   41     350/ 16     1008.8S
N MID LAKE BUOY  1450   39 38  330/ 21/ 23 1007.4R         4/ 5
CHAMBERS ISLAND  1500   42     340/ 17/ 22 1009.5R
MENOMINEE LKSHOR 1500   42     350/ 17/ 21 1008.2R
$$




USA.gov is the U.S. government's official web portal to all federal, state and local government web resources and services.